GW4642 Weather Reports


Display with metric or nautical units.
time (UTC)temp
F
wind
direction
speed
MPH
gust
MPH
rain 1hr
in
rain 24hr
in
rain mn
in
humidity
%
barometer
mb
20260504160308 76 279 3.0 7.0 0.00 0.00 0.00 52 1012.7
20260504150733 72 220 3.0 4.0 0.00 0.00 0.00 56 1013.2
20260504150230 72 40 2.0 10.0 0.00 0.00 0.00 58 1013.2
20260504141159 70 244 2.0 8.0 0.00 0.00 0.00 61 1013.0
20260504140656 69 193 2.0 6.0 0.00 0.00 0.00 62 1013.3
20260504140152 69 239 2.0 6.0 0.00 0.00 0.00 63 1013.3
20260504130620 63 206 2.0 7.0 0.00 0.00 0.00 68 1013.2
20260504130117 63 219 4.0 6.0 0.00 0.00 0.00 68 1013.3
20260504110508 57 149 2.0 3.0 0.00 0.00 0.00 73 1012.6
20260504100430 58 193 3.0 3.0 0.00 0.00 0.00 68 1012.7
20260504081823 58 195 3.0 6.0 0.00 0.00 0.00 63 1012.9
20260504081320 58 220 2.0 6.0 0.00 0.00 0.00 63 1012.9
20260504080816 57 274 2.0 2.0 0.00 0.00 0.00 64 1012.9
20260504080313 57 229 2.0 4.0 0.00 0.00 0.00 64 1013.0
20260504070240 57 153 0.0 4.0 0.00 0.00 0.00 63 1013.5
20260504060201 57 145 0.0 2.0 0.00 0.00 0.00 63 1014.2
20260504050629 55 99 1.0 2.0 0.00 0.00 0.00 65 1014.3
20260504050126 56 77 0.0 2.0 0.00 0.00 0.00 64 1014.4
20260504045623 56 79 1.0 2.0 0.00 0.00 0.00 64 1014.3
20260504045118 56 66 1.0 2.0 0.00 0.00 0.00 63 1014.3
20260504044616 56 114 1.0 2.0 0.00 0.00 0.00 62 1014.6
20260504044113 56 176 1.0 2.0 0.00 0.00 0.00 62 1014.4
20260504043610 56 99 3.0 3.0 0.00 0.00 0.00 62 1014.5
20260504043107 56 146 2.0 3.0 0.00 0.00 0.00 63 1014.6
20260504042604 56 180 0.0 3.0 0.00 0.00 0.00 62 1014.5
20260504042101 56 122 2.0 2.0 0.00 0.00 0.00 62 1014.8
20260504041556 56 120 1.0 2.0 0.00 0.00 0.00 62 1014.6
20260504041053 57 99 1.0 2.0 0.00 0.00 0.00 62 1014.6
20260504040550 57 119 2.0 2.0 0.00 0.00 0.00 61 1014.6
20260504040047 57 106 0.0 2.0 0.00 0.00 0.00 62 1014.8
20260504035544 56 162 2.0 2.0 0.00 0.00 0.00 62 1014.8
20260504035040 56 115 1.0 2.0 0.00 0.00 0.00 62 1014.9
20260504034538 56 121 3.0 3.0 0.00 0.00 0.00 63 1014.8
20260504034035 56 50 0.0 1.0 0.00 0.00 0.00 63 1014.9
20260504033533 56 44 0.0 1.0 0.00 0.00 0.00 63 1015.0
20260504033030 55 180 0.0 1.0 0.00 0.00 0.00 65 1015.0
20260504032527 56 60 0.0 1.0 0.00 0.00 0.00 63 1015.1
20260504032023 56 322 0.0 2.0 0.00 0.00 0.00 62 1015.1
20260504031521 56 103 0.0 1.0 0.00 0.00 0.00 63 1015.1
20260504031016 57 180 0.0 2.0 0.00 0.00 0.00 62 1015.3
20260504030514 57 148 0.0 2.0 0.00 0.00 0.00 61 1015.0
20260504030010 57 147 0.0 2.0 0.00 0.00 0.00 61 1015.3
20260504025507 56 50 1.0 1.0 0.00 0.00 0.00 62 1015.0
20260504025004 57 315 0.0 2.0 0.00 0.00 0.00 62 1015.0
20260504024501 57 38 0.0 1.0 0.00 0.00 0.00 61 1014.9
20260504023958 57 66 0.0 1.0 0.00 0.00 0.00 61 1014.9
20260504023455 58 142 0.0 1.0 0.00 0.00 0.00 60 1014.8
20260504022950 58 145 0.0 1.0 0.00 0.00 0.00 59 1014.8
20260504022446 59 215 1.0 2.0 0.00 0.00 0.00 57 1014.8
20260504021943 59 124 1.0 2.0 0.00 0.00 0.00 56 1014.9
20260504021440 59 168 1.0 2.0 0.00 0.00 0.00 55 1014.9
20260504020938 60 145 2.0 2.0 0.00 0.00 0.00 54 1014.9
20260504020434 60 97 1.0 3.0 0.00 0.00 0.00 54 1014.8
20260504015931 60 162 2.0 5.0 0.00 0.00 0.00 53 1014.6
20260504015427 61 115 0.0 3.0 0.00 0.00 0.00 53 1014.6
20260504014923 61 245 0.0 3.0 0.00 0.00 0.00 53 1014.5
20260504014419 61 183 2.0 4.0 0.00 0.00 0.00 53 1014.3
20260504013916 61 151 1.0 4.0 0.00 0.00 0.00 52 1014.4
20260504013415 61 167 2.0 3.0 0.00 0.00 0.00 52 1014.5
20260504012910 61 142 0.0 1.0 0.00 0.00 0.00 52 1014.4
20260504012409 62 163 2.0 4.0 0.00 0.00 0.00 51 1014.5
20260504011905 62 118 1.0 2.0 0.00 0.00 0.00 51 1014.6
20260504011403 62 144 2.0 2.0 0.00 0.00 0.00 50 1014.6
20260504010858 62 166 0.0 2.0 0.00 0.00 0.00 50 1014.7
20260504010354 63 141 2.0 3.0 0.00 0.00 0.00 49 1014.8
20260504005851 63 189 1.0 2.0 0.00 0.00 0.00 48 1014.7
20260504005347 63 147 0.0 1.0 0.00 0.00 0.00 48 1014.7
20260504004845 64 153 1.0 3.0 0.00 0.00 0.00 46 1014.6
20260504004343 64 170 0.0 3.0 0.00 0.00 0.00 46 1014.7
20260504003839 65 240 0.0 3.0 0.00 0.00 0.00 45 1014.7
20260504003336 65 206 0.0 2.0 0.00 0.00 0.00 45 1014.7
20260504002832 65 80 0.0 4.0 0.00 0.00 0.00 45 1014.7
20260504002329 65 197 1.0 2.0 0.00 0.00 0.00 45 1014.9
20260504001827 66 151 0.0 2.0 0.00 0.00 0.00 44 1015.0
20260504001324 66 160 0.0 4.0 0.00 0.00 0.00 44 1015.0
20260504000821 66 44 0.0 2.0 0.00 0.00 0.00 44 1015.1
20260504000318 66 202 1.0 5.0 0.00 0.00 0.00 43 1015.0
20260503235816 67 234 1.0 2.0 0.00 0.00 0.00 43 1015.0
20260503235313 67 197 3.0 3.0 0.00 0.00 0.00 42 1015.1
20260503234810 67 183 3.0 4.0 0.00 0.00 0.00 41 1015.1
20260503234308 67 347 1.0 4.0 0.00 0.00 0.00 42 1015.3
20260503233806 67 213 3.0 6.0 0.00 0.00 0.00 41 1015.3
20260503233301 68 188 0.0 4.0 0.00 0.00 0.00 43 1015.4
20260503232758 68 352 1.0 4.0 0.00 0.00 0.00 41 1015.6
20260503232256 68 295 1.0 5.0 0.00 0.00 0.00 41 1015.5
20260503231754 68 95 2.0 6.0 0.00 0.00 0.00 40 1015.6
20260503231250 68 196 4.0 5.0 0.00 0.00 0.00 42 1015.7
20260503230746 68 274 2.0 4.0 0.00 0.00 0.00 41 1015.7
20260503230243 68 155 1.0 4.0 0.00 0.00 0.00 41 1015.6
20260503225736 68 208 2.0 4.0 0.00 0.00 0.00 42 1015.7
20260503225236 68 174 0.0 4.0 0.00 0.00 0.00 40 1015.9
20260503224733 68 218 0.0 9.0 0.00 0.00 0.00 40 1015.8
20260503224231 68 180 3.0 6.0 0.00 0.00 0.00 40 1015.7
20260503223728 68 206 4.0 8.0 0.00 0.00 0.00 39 1015.6
20260503223225 69 349 2.0 6.0 0.00 0.00 0.00 40 1015.7
20260503222721 69 185 6.0 7.0 0.00 0.00 0.00 39 1015.8
20260503222219 69 142 0.0 4.0 0.00 0.00 0.00 41 1015.8
20260503221718 71 220 4.0 6.0 0.00 0.00 0.00 38 1016.0
20260503221215 71 194 0.0 3.0 0.00 0.00 0.00 38 1016.0
20260503220711 71 239 5.0 7.0 0.00 0.00 0.00 37 1016.0
20260503220207 70 0 2.0 4.0 0.00 0.00 0.00 39 1016.1
20260503215704 70 331 2.0 8.0 0.00 0.00 0.00 38 1016.1
20260503215201 72 346 0.0 3.0 0.00 0.00 0.00 38 1016.1
20260503214700 72 311 2.0 2.0 0.00 0.00 0.00 36 1016.4
20260503214155 71 221 4.0 8.0 0.00 0.00 0.00 38 1016.4
20260503213649 72 283 0.0 4.0 0.00 0.00 0.00 35 1016.6
20260503213145 72 188 0.0 5.0 0.00 0.00 0.00 38 1016.5
20260503212643 72 255 2.0 4.0 0.00 0.00 0.00 37 1016.6
20260503212140 72 122 1.0 3.0 0.00 0.00 0.00 37 1016.8
20260503211638 71 30 0.0 6.0 0.00 0.00 0.00 38 1016.7
20260503211132 72 269 1.0 3.0 0.00 0.00 0.00 38 1017.0
20260503210629 71 306 1.0 6.0 0.00 0.00 0.00 37 1017.0
20260503210126 70 205 4.0 10.0 0.00 0.00 0.00 38 1017.1
20260503205622 70 236 1.0 5.0 0.00 0.00 0.00 39 1017.3
20260503205118 71 259 5.0 7.0 0.00 0.00 0.00 39 1017.4
20260503204615 70 206 5.0 9.0 0.00 0.00 0.00 39 1017.4
20260503204113 70 204 4.0 6.0 0.00 0.00 0.00 37 1017.5
20260503203610 70 203 4.0 5.0 0.00 0.00 0.00 37 1017.7
20260503203108 70 192 7.0 8.0 0.00 0.00 0.00 37 1017.8
20260503202605 70 219 4.0 5.0 0.00 0.00 0.00 37 1017.8
20260503202103 69 218 5.0 9.0 0.00 0.00 0.00 37 1018.0
20260503201601 70 111 2.0 6.0 0.00 0.00 0.00 38 1018.2
20260503201058 71 64 2.0 7.0 0.00 0.00 0.00 38 1018.3
20260503200554 71 79 4.0 4.0 0.00 0.00 0.00 40 1018.4
20260503200050 71 79 2.0 4.0 0.00 0.00 0.00 38 1018.6
20260503195547 69 287 2.0 6.0 0.00 0.00 0.00 38 1018.8
20260503195044 71 209 3.0 5.0 0.00 0.00 0.00 38 1018.8
20260503194541 71 261 3.0 10.0 0.00 0.00 0.00 40 1019.0
20260503194041 71 116 2.0 4.0 0.00 0.00 0.00 37 1019.1
20260503193538 71 278 0.0 3.0 0.00 0.00 0.00 38 1019.1
20260503193033 71 246 3.0 5.0 0.00 0.00 0.00 36 1019.1
20260503192530 70 204 4.0 6.0 0.00 0.00 0.00 41 1018.9
20260503192026 70 240 4.0 8.0 0.00 0.00 0.00 39 1019.1
20260503191523 70 29 0.0 5.0 0.00 0.00 0.00 38 1019.1
20260503191020 70 240 3.0 4.0 0.00 0.00 0.00 38 1019.2
20260503190516 69 267 2.0 7.0 0.00 0.00 0.00 37 1019.5
20260503190014 70 267 3.0 6.0 0.00 0.00 0.00 39 1019.5
20260503185510 70 12 2.0 4.0 0.00 0.00 0.00 37 1019.4
20260503185009 69 268 5.0 7.0 0.00 0.00 0.00 39 1019.4
20260503184506 68 218 3.0 7.0 0.00 0.00 0.00 38 1019.5
20260503184002 69 220 7.0 10.0 0.00 0.00 0.00 40 1019.5
20260503183459 69 216 3.0 4.0 0.00 0.00 0.00 43 1019.6
20260503182955 65 188 4.0 7.0 0.00 0.00 0.00 43 1019.7
20260503182450 68 203 10.0 12.0 0.00 0.00 0.00 41 1019.9
20260503181947 69 174 1.0 5.0 0.00 0.00 0.00 42 1019.9
20260503181444 68 338 0.0 3.0 0.00 0.00 0.00 41 1020.0
20260503180939 69 236 2.0 11.0 0.00 0.00 0.00 39 1020.1
20260503180438 69 214 2.0 4.0 0.00 0.00 0.00 41 1020.1
20260503175934 68 133 2.0 3.0 0.00 0.00 0.00 42 1020.2
20260503175432 68 273 2.0 4.0 0.00 0.00 0.00 44 1020.2
20260503174928 65 279 2.0 11.0 0.00 0.00 0.00 42 1020.2
20260503174427 66 247 6.0 11.0 0.00 0.00 0.00 43 1020.4
20260503173926 68 181 3.0 5.0 0.00 0.00 0.00 42 1020.7
20260503173423 67 202 4.0 6.0 0.00 0.00 0.00 39 1020.7
20260503172920 65 204 2.0 7.0 0.00 0.00 0.00 43 1020.7
20260503172417 64 215 0.0 5.0 0.00 0.00 0.00 43 1020.7
20260503171913 66 74 2.0 5.0 0.00 0.00 0.00 42 1020.9
20260503171410 64 223 2.0 6.0 0.00 0.00 0.00 43 1020.9
20260503170908 66 226 5.0 6.0 0.00 0.00 0.00 41 1021.0
20260503170404 66 220 3.0 4.0 0.00 0.00 0.00 43 1021.0